This is the latest recevied weather packets stored in our database for station/object KD8BMB. If no packets are shown the sender has not sent any weather packets the latest 10 day(s).
| Time | Temp. | Humidity | Pressure | Rain* | Wind** | Luminosity | Snow |
|---|---|---|---|---|---|---|---|
| 1778007506 | 15° C | 58% | 1006.7 hPa | 0 mm | - | 282 W/m² | - |
| 1778007203 | 13.89° C | 59% | 1006.6 hPa | 0 mm | - | 308 W/m² | - |
| 1778006899 | 13.89° C | 60% | 1006.4 hPa | 0 mm | - | 280 W/m² | - |
| 1778006596 | 13.33° C | 61% | 1006.7 hPa | 0 mm | - | 265 W/m² | - |
| 1778006293 | 13.33° C | 60% | 1006.5 hPa | 0 mm | - | 173 W/m² | - |
| 1778005990 | 13.89° C | 61% | 1006.2 hPa | 0 mm | - | 233 W/m² | - |
| 1778005687 | 13.33° C | 62% | 1006.3 hPa | 0 mm | - | 269 W/m² | - |
| 1778005383 | 13.33° C | 61% | 1006.3 hPa | 0 mm | - | 271 W/m² | - |
| 1778005080 | 13.33° C | 70% | 1006.3 hPa | 0 mm | - | 298 W/m² | - |
| 1778004778 | 13.33° C | 70% | 1006.2 hPa | 0 mm | - | 342 W/m² | - |
| 1778004474 | 13.33° C | 69% | 1006.2 hPa | 0 mm | - | 332 W/m² | - |
| 1778004171 | 13.33° C | 67% | 1006.3 hPa | 0 mm | - | 311 W/m² | - |
| 1778003867 | 13.33° C | 69% | 1006.1 hPa | 0 mm | - | 505 W/m² | - |
| 1778003564 | 12.78° C | 71% | 1006.1 hPa | 0 mm | - | 509 W/m² | - |
| 1778003260 | 12.22° C | 72% | 1006 hPa | 0 mm | - | 235 W/m² | - |
| 1778002957 | 12.22° C | 72% | 1006.1 hPa | 0 mm | - | 229 W/m² | - |
| 1778002653 | 12.22° C | 72% | 1005.8 hPa | 0 mm | - | 233 W/m² | - |
| 1778002350 | 12.22° C | 73% | 1006.1 hPa | 0 mm | - | 217 W/m² | - |
| 1778002047 | 12.22° C | 74% | 1006.3 hPa | 0 mm | - | 458 W/m² | - |
| 1778001744 | 12.22° C | 73% | 1006.3 hPa | 0 mm | - | 230 W/m² | - |
| 1778001444 | 12.22° C | 74% | 1006 hPa | 0 mm | - | 173 W/m² | - |
| 1778001141 | 11.67° C | 73% | 1006.2 hPa | 0 mm | - | 198 W/m² | - |
| 1778000838 | 12.22° C | 73% | 1006.1 hPa | 0 mm | - | 319 W/m² | - |
| 1778000535 | 11.67° C | 73% | 1006 hPa | 0 mm | - | 354 W/m² | - |
| 1778000230 | 12.22° C | 73% | 1006 hPa | 0 mm | - | 346 W/m² | - |
* Rain latest hour (hover to see other rain measurements)
** Current wind speed in m/s (hover to see current wind gust speed)